Location: Gull Harbor
(47.1000°N, 122.9000°W)
Time: 09:50:54
(UTC-08:00)

ISS - Pass Details

Date: 28 October 2019
Orbit: 412 x 421 km, 51.6° (Epoch: 17 November)

Event Time Altitude Azimuth Distance (km) Brightness Sun altitude
Exits shadow 07:00:18 10° 257° (WSW) 1,489 -1.5 -8.8°
Maximum altitude 07:03:37 64° 340° (NNW) 473 -3.6 -8.2°
Drops below altitude 10° 07:06:59 10° 62° (ENE) 1,508 -0.1 -7.7°
Sets 07:09:06 0° 66° (ENE) 2,373 1.1 -7.3°
